Location: Ladrillo (historical)
(32.8195°N, 117.2231°W)
Time: 15:40:38
(UTC+00:00)

N. Korean satellite - Visible Passes

Search period start: 30 November 2021 00:00
Search period end: 10 December 2021 00:00
Orbit: 447 x 495 km, 97.3° (Epoch: 30 November)

Date Brightness Start Highest point End Pass type
(mag) Time Alt. Az. Time Alt. Az. Time Alt. Az.
30 Nov 6.2 13:05:57 10° N 13:09:20 72° W 13:12:40 10° SSW visible
01 Dec 9.7 01:09:24 10° SW 01:11:59 19° W 01:14:34 10° NW visible
01 Dec 7.9 12:37:40 10° NNE 12:40:51 37° E 12:43:59 10° SSE visible
02 Dec 9.6 12:10:18 10° ENE 12:12:15 15° E 12:14:13 10° SE visible
02 Dec 7.7 13:42:49 10° NNW 13:45:21 20° WNW 13:47:53 10° WSW visible
03 Dec 6.4 13:13:42 10° N 13:17:00 53° WNW 13:20:17 10° SSW visible
04 Dec 9.8 01:17:40 10° SW 01:19:43 15° W 01:21:46 10° WNW visible
04 Dec 7.2 12:45:13 10° NNE 12:48:31 50° E 12:51:48 10° S visible
05 Dec 9.2 12:17:28 10° NE 12:19:56 19° E 12:22:23 10° SE visible
05 Dec 8.0 13:50:48 10° NNW 13:52:56 16° WNW 13:55:04 10° WSW visible
06 Dec 6.8 13:21:23 10° N 13:24:34 40° WNW 13:27:45 10° SW visible
07 Dec 10.1 01:26:14 10° WSW 01:27:23 11° W 01:28:31 10° WNW visible
07 Dec 6.6 12:52:44 10° NNE 12:56:05 68° E 12:59:27 10° S visible
08 Dec 8.8 12:24:42 10° NE 12:27:30 24° E 12:30:18 10° SSE visible
08 Dec 8.2 13:58:53 10° NW 14:00:25 13° WNW 14:01:58 10° W visible
09 Dec 7.1 13:29:02 10° N 13:32:03 31° WNW 13:35:05 10° SW visible
